Tracking 30289 objects as of 29-Apr-2025
HD Live streaming from Space Station
objects crossing your sky now

THOR ABLESTAR DEB

Track THOR ABLESTAR DEB now!
10-day predictions


NORAD ID: 1504
Int'l Code: 1965-065A
Perigee: 1,067.2 km
Apogee: 1,164.0 km
Inclination: 89.9 °
Period: 107.4 minutes
Semi major axis: 7486 km
RCS: 0.0138 m2 (small)
Launch date: August 13, 1965
Source: United States (US)
Launch site: AIR FORCE WESTERN TEST RANGE (AFWTR)

Note: This is SATELLITE DEBRIS
Your satellite tracking list
Your tracking list is empty




NASA's NSSDC Master Catalog

Two Line Element Set (TLE):
1  1504U 65065A   25117.62105904  .00000343  00000-0  60473-3 0  9998
2  1504  89.9410 243.6200 0064674 319.6532  58.0021 13.40225974912449
Source of the keplerian elements: AFSPC